Lumberton, NJ

6:46 PM EDT on July 23, 2016 (GMT -0400)
South Jersey Regional

Weather History for KVAY - March, 2013

Change the Weather History Date:

Sunday, March 10, 2013

  Actual Average (KWRI) Record (KWRI)
Temperature  
Mean Temperature 41 °F -  
Max Temperature 55 °F 47 °F 81 °F (2016)
Min Temperature 27 °F 27 °F 15 °F (2005)
Degree Days  
Heating Degree Days 24    
Moisture  
Dew Point 30 °F    
Average Humidity 71    
Maximum Humidity 92    
Minimum Humidity 40    
Precipitation  
Precipitation 0.00 in - - ()
Sea Level Pressure  
Sea Level Pressure 30.33 in    
Wind  
Wind Speed 3 mph (ESE)    
Max Wind Speed 8 mph    
Max Gust Speed 16 mph    
Visibility 10 miles    
Events      
Averages and records for this station are not official NWS values.
T = Trace of Precipitation, MM = Missing Value Source: NWS Daily Summary

Daily Weather History Graph

Daily Weather History Graph

Search for Another Location

Airport or City:

Trip Planner

Search our weather history database for the weather conditions in past years. The results will help you decide how hot, cold, wet, or windy it might be!

Date:

Astronomy

Mar. 10, 2013 Rise Set
Actual Time 7:18 AM EDT 7:01 PM EDT
Civil Twilight 6:51 AM EDT 7:28 PM EDT
Nautical Twilight 6:20 AM EDT 7:59 PM EDT
Astronomical Twilight 5:48 AM EDT 8:31 PM EDT
Moon 6:16 AM EDT (3/10) 6:06 PM EDT (3/10)
Length of Visible Light 12h 36m
Length of Day
11h 42m
Waning Crescent, 2% of the Moon is Illuminated
Mar 10
Waning Crescent
Mar 11
New
Mar 19
First Quarter
Mar 27
Full
Apr 3
Last Quarter

Hourly Weather History & Observations

Time (EDT) Temp. Windchill Dew Point Humidity Pressure Visibility Wind Dir Wind Speed Gust Speed Precip Events Conditions
12:54 AM 28.9 °F - 24.1 °F 82% 30.32 in 10.0 mi Calm Calm - N/A   Clear
1:54 AM 28.0 °F - 24.1 °F 85% 30.33 in 10.0 mi Calm Calm - N/A   Clear
3:54 AM 28.0 °F - 23.0 °F 81% 30.32 in 10.0 mi Calm Calm - N/A   Clear
4:54 AM 27.0 °F 23.0 °F 24.1 °F 89% 30.33 in 10.0 mi East 3.5 mph - N/A   Clear
5:54 AM 28.0 °F - 24.1 °F 85% 30.35 in 10.0 mi Calm Calm - N/A   Clear
6:54 AM 27.0 °F - 25.0 °F 92% 30.36 in 9.0 mi Calm Calm - N/A   Clear
8:54 AM 34.0 °F - 30.9 °F 89% 30.37 in 9.0 mi Calm Calm - N/A   Clear
9:54 AM 39.9 °F 35.8 °F 34.0 °F 79% 30.38 in 10.0 mi East 5.8 mph - N/A   Clear
10:54 AM 44.1 °F 40.1 °F 35.1 °F 71% 30.37 in 10.0 mi East 6.9 mph - N/A   Clear
11:54 AM 46.0 °F 43.9 °F 34.0 °F 63% 30.37 in 10.0 mi NE 4.6 mph - N/A   Clear
12:54 PM 50.0 °F - 34.0 °F 54% 30.36 in 10.0 mi Variable 5.8 mph - N/A   Clear
1:54 PM 54.0 °F - 30.9 °F 41% 30.33 in 10.0 mi SSE 5.8 mph - N/A   Clear
2:54 PM 54.0 °F - 32.0 °F 43% 30.31 in 10.0 mi ENE 4.6 mph - N/A   Partly Cloudy
3:54 PM 55.0 °F - 30.9 °F 40% 30.30 in 10.0 mi ESE 8.1 mph - N/A   Clear
4:54 PM 54.0 °F - 35.1 °F 49% 30.29 in 10.0 mi ESE 8.1 mph 16.1 mph N/A   Clear
5:54 PM 50.0 °F - 34.0 °F 54% 30.29 in 10.0 mi SE 6.9 mph - N/A   Clear
6:54 PM 46.0 °F 42.5 °F 34.0 °F 63% 30.31 in 10.0 mi SE 6.9 mph - N/A   Clear
7:54 PM 41.0 °F 37.1 °F 33.1 °F 73% 30.32 in 10.0 mi SE 5.8 mph - N/A   Clear
8:54 PM 37.9 °F 33.5 °F 33.1 °F 83% 30.33 in 10.0 mi SE 5.8 mph - N/A   Clear
10:54 PM 35.1 °F - 32.0 °F 89% 30.33 in 9.0 mi Calm Calm - N/A   Clear
11:54 PM 34.0 °F - 30.9 °F 89% 30.32 in 8.0 mi Calm Calm - N/A   Clear